Location: Putah Creek Observatory
(38.7021°N, 122.3865°W)
Time: 18:12:59
(UTC-07:00)

Cosmos 2233 Rocket - Pass Details

Date: 27 May 2018
Orbit: 954 x 989 km, 82.9° (Epoch: 18 June)

Event Time Altitude Azimuth Distance (km) Brightness Sun altitude
Rises 20:43:47 0° 173° (S) 3,619 6.6 -4.0°
Reaches altitude 10° 20:46:18 10° 169° (S) 2,680 5.9 -4.4°
Maximum altitude 20:52:16 58° 92° (E) 1,119 4.1 -5.4°
Drops below altitude 10° 20:58:20 10° 15° (NNE) 2,718 6.6 -6.4°
Sets 21:00:54 0° 12° (NNE) 3,674 7.3 -6.8°
